Glasgow, KY

1:25 PM CST on February 23, 2017 (GMT -0600)
Glasgow Municipal

Weather History for KGLW - April, 2014

Change the Weather History Date:

Monday, April 21, 2014

  Actual Average Record
Temperature  
Mean Temperature 62 °F -  
Max Temperature 78 °F 70 °F 86 °F (1963)
Min Temperature 47 °F 48 °F 27 °F (1983)
Degree Days  
Heating Degree Days 2    
Growing Degree Days 12 (Base 50)    
Moisture  
Dew Point 49 °F    
Average Humidity 65    
Maximum Humidity 100    
Minimum Humidity 33    
Precipitation  
Precipitation 0.00 in - - ()
Sea Level Pressure  
Sea Level Pressure 30.03 in    
Wind  
Wind Speed 2 mph (WSW)    
Max Wind Speed 10 mph    
Max Gust Speed 17 mph    
Visibility 10 miles    
Events Rain    
Averages and records for this station are not official NWS values.
T = Trace of Precipitation, MM = Missing Value Source: NWS Daily Summary

Daily Weather History Graph

Daily Weather History Graph

Search for Another Location

Airport or City:

Trip Planner

Search our weather history database for the weather conditions in past years. The results will help you decide how hot, cold, wet, or windy it might be!

Date:

Astronomy

Apr. 21, 2014 Rise Set
Actual Time 6:01 AM CDT 7:23 PM CDT
Civil Twilight 5:34 AM CDT 7:51 PM CDT
Nautical Twilight 5:01 AM CDT 8:23 PM CDT
Astronomical Twilight 4:27 AM CDT 8:58 PM CDT
Moon 12:51 AM CDT (4/21) 11:29 AM CDT (4/21)
Length of Visible Light 14h 16m
Length of Day
13h 22m
Waning Gibbous, 57% of the Moon is Illuminated
Apr 21
Waning Gibbous
Apr 22
Last Quarter
Apr 29
New
May 6
First Quarter
May 14
Full

Hourly Weather History & Observations

Time (CDT) Temp. Dew Point Humidity Pressure Visibility Wind Dir Wind Speed Gust Speed Precip Events Conditions
12:15 AM 51.6 °F 47.1 °F 85% 30.11 in 10.0 mi Calm Calm - N/A   Clear
12:35 AM 51.1 °F 46.8 °F 85% 30.11 in 10.0 mi Calm Calm - N/A   Clear
12:55 AM 50.7 °F 46.4 °F 85% 30.11 in 10.0 mi Calm Calm - N/A   Clear
1:15 AM 50.0 °F 46.2 °F 87% 30.11 in 10.0 mi Calm Calm - N/A   Clear
1:35 AM 49.6 °F 46.0 °F 87% 30.11 in 10.0 mi Calm Calm - N/A   Clear
1:55 AM 49.6 °F 46.2 °F 88% 30.10 in 10.0 mi Calm Calm - N/A   Clear
2:15 AM 49.1 °F 46.0 °F 89% 30.10 in 10.0 mi Calm Calm - N/A   Clear
2:35 AM 48.4 °F 46.6 °F 93% 30.10 in 10.0 mi Calm Calm - N/A   Clear
2:55 AM 48.2 °F 48.0 °F 99% 30.10 in 10.0 mi Calm Calm - N/A   Clear
3:15 AM 48.0 °F 48.0 °F 100% 30.10 in 10.0 mi Calm Calm - N/A   Clear
3:35 AM 47.7 °F 47.7 °F 100% 30.10 in 10.0 mi Calm Calm - N/A   Clear
3:55 AM 47.7 °F 47.7 °F 100% 30.10 in 10.0 mi Calm Calm - N/A   Clear
4:15 AM 47.7 °F 47.7 °F 100% 30.10 in 7.0 mi Calm Calm - N/A   Clear
4:35 AM 47.7 °F 47.7 °F 100% 30.10 in 7.0 mi Calm Calm - N/A   Clear
4:55 AM 48.2 °F 48.2 °F 100% 30.10 in 10.0 mi Calm Calm - N/A   Clear
5:15 AM 48.7 °F 48.6 °F 99% 30.10 in 10.0 mi Calm Calm - N/A   Clear
5:35 AM 49.1 °F 48.0 °F 96% 30.10 in 10.0 mi Calm Calm - N/A   Clear
5:55 AM 48.9 °F 47.8 °F 96% 30.10 in 10.0 mi Calm Calm - N/A   Clear
6:15 AM 48.6 °F 48.4 °F 99% 30.10 in 10.0 mi Calm Calm - N/A   Clear
6:35 AM 48.4 °F 48.4 °F 100% 30.10 in 10.0 mi Calm Calm - N/A   Clear
6:55 AM 48.7 °F 48.4 °F 99% 30.11 in 10.0 mi Calm Calm - N/A   Clear
7:15 AM 49.6 °F 48.0 °F 94% 30.11 in 10.0 mi Calm Calm - N/A   Clear
7:35 AM 52.2 °F 49.3 °F 90% 30.11 in 10.0 mi Calm Calm - N/A   Clear
7:55 AM 54.1 °F 48.9 °F 82% 30.11 in 10.0 mi Calm Calm - N/A   Clear
8:15 AM 58.3 °F 47.7 °F 68% 30.11 in 10.0 mi South 3.5 mph - N/A   Clear
8:35 AM 60.6 °F 48.2 °F 64% 30.10 in 10.0 mi SW 3.5 mph - N/A   Clear
8:55 AM 63.0 °F 48.7 °F 60% 30.10 in 10.0 mi SW 3.5 mph - N/A   Clear
9:15 AM 65.3 °F 47.8 °F 53% 30.09 in 10.0 mi SSW 5.8 mph - N/A   Clear
9:35 AM 67.1 °F 47.7 °F 50% 30.09 in 10.0 mi SW 8.1 mph - N/A   Clear
9:55 AM 68.0 °F 47.7 °F 48% 30.09 in 10.0 mi SW 6.9 mph - N/A   Clear
10:15 AM 68.5 °F 47.5 °F 47% 30.08 in 10.0 mi SW 6.9 mph - N/A   Clear
10:35 AM 69.6 °F 48.0 °F 46% 30.08 in 10.0 mi SW 6.9 mph - N/A   Clear
10:55 AM 70.9 °F 48.0 °F 44% 30.08 in 10.0 mi SW 5.8 mph - N/A   Clear
11:15 AM 72.0 °F 48.9 °F 44% 30.07 in 10.0 mi WSW 5.8 mph - N/A   Clear
11:35 AM 72.3 °F 50.2 °F 46% 30.07 in 10.0 mi SW 4.6 mph - N/A   Clear
11:55 AM 73.2 °F 49.6 °F 43% 30.07 in 10.0 mi SW 6.9 mph - N/A   Clear
12:15 PM 73.4 °F 48.6 °F 41% 30.05 in 10.0 mi SW 6.9 mph - N/A   Clear
12:35 PM 73.8 °F 48.9 °F 41% 30.05 in 10.0 mi SW 8.1 mph - N/A   Clear
12:55 PM 75.4 °F 48.0 °F 38% 30.04 in 10.0 mi WSW 6.9 mph - N/A   Clear
1:15 PM 75.4 °F 47.8 °F 38% 30.03 in 10.0 mi WSW 9.2 mph - N/A   Clear
1:35 PM 75.7 °F 48.7 °F 38% 30.02 in 10.0 mi WSW 8.1 mph - N/A   Clear
1:55 PM 76.6 °F 48.9 °F 38% 30.01 in 10.0 mi SW 10.4 mph - N/A   Scattered Clouds
2:15 PM 75.6 °F 47.7 °F 37% 30.01 in 10.0 mi SW 9.2 mph - N/A   Mostly Cloudy
2:35 PM 77.0 °F 47.7 °F 35% 30.00 in 10.0 mi SW 10.4 mph 16.1 mph N/A   Scattered Clouds
2:55 PM 78.3 °F 46.9 °F 33% 29.98 in 10.0 mi WNW 6.9 mph 17.3 mph N/A   Scattered Clouds
3:15 PM 77.7 °F 46.4 °F 33% 29.98 in 10.0 mi WSW 8.1 mph - N/A   Scattered Clouds
3:35 PM 76.5 °F 46.2 °F 34% 29.97 in 10.0 mi West 6.9 mph - N/A   Scattered Clouds
3:55 PM 75.9 °F 45.9 °F 34% 29.97 in 10.0 mi West 5.8 mph - N/A   Mostly Cloudy
4:15 PM 76.5 °F 46.4 °F 34% 29.97 in 10.0 mi West 8.1 mph - N/A   Mostly Cloudy
5:15 PM 74.8 °F 46.9 °F 37% 29.96 in 10.0 mi WSW 8.1 mph - N/A   Scattered Clouds
5:35 PM 74.8 °F 48.2 °F 39% 29.96 in 10.0 mi West 4.6 mph - N/A   Clear
5:55 PM 74.1 °F 49.3 °F 41% 29.95 in 10.0 mi WSW 3.5 mph - N/A   Clear
6:15 PM 73.8 °F 50.0 °F 43% 29.94 in 10.0 mi Calm Calm - N/A   Clear
6:35 PM 73.4 °F 50.7 °F 45% 29.93 in 10.0 mi Calm Calm - N/A   Clear
6:55 PM 71.8 °F 52.0 °F 50% 29.93 in 10.0 mi Calm Calm - N/A   Scattered Clouds
7:15 PM 70.5 °F 50.4 °F 49% 29.93 in 10.0 mi Calm Calm - N/A   Mostly Cloudy
7:35 PM 69.3 °F 51.4 °F 53% 29.93 in 10.0 mi Calm Calm - N/A   Overcast
7:55 PM 68.2 °F 51.8 °F 56% 29.93 in 10.0 mi Calm Calm - N/A   Overcast
8:15 PM 66.9 °F 54.0 °F 63% 29.93 in 10.0 mi Calm Calm - N/A   Overcast
8:35 PM 66.7 °F 52.9 °F 61% 29.93 in 10.0 mi Calm Calm - N/A   Overcast
8:55 PM 66.0 °F 52.9 °F 63% 29.93 in 10.0 mi Calm Calm - N/A Rain Light Rain
9:15 PM 65.7 °F 53.6 °F 65% 29.93 in 10.0 mi WNW 5.8 mph - N/A Rain Light Rain
9:35 PM 66.7 °F 50.9 °F 57% 29.93 in 10.0 mi NNW 3.5 mph - N/A   Overcast
9:55 PM 65.5 °F 51.6 °F 61% 29.92 in 10.0 mi Calm Calm - N/A   Overcast
10:15 PM 63.5 °F 52.5 °F 67% 29.92 in 10.0 mi Calm Calm - N/A   Overcast
10:35 PM 62.8 °F 53.4 °F 71% 29.92 in 10.0 mi Calm Calm - N/A   Overcast
10:55 PM 63.1 °F 53.1 °F 70% 29.92 in 10.0 mi Calm Calm - N/A   Overcast
11:15 PM 63.5 °F 52.2 °F 67% 29.91 in 10.0 mi Calm Calm - N/A   Overcast
11:35 PM 63.5 °F 52.0 °F 66% 29.91 in 10.0 mi Calm Calm - N/A   Overcast
11:55 PM 63.1 °F 52.3 °F 68% 29.90 in 10.0 mi Calm Calm - N/A   Overcast